www.pogodaiklimat.ru

Погода и климат >> Архив погоды >> Хорватия >> Ластово


ПОГОДА в Ластово

  • Прогноз погоды в Ластово
  • Монитор погоды в Ластово

АРХИВ ПОГОДЫ в Ластово

Время (UTC), дата Ветер
(напр.,м/с)
 
Видим.   Явления Облачность Т
(С)
Тd
(С)
f
(%)
Тe
(С)
Тes
(С)
Комфортность P
(гПа)
Po
(гПа)
Тmin
(С)
Tmax
(С)
R
(мм)
R24
(мм)
S
(см)
03 13.08 З 6 н/о н/о +27.8 +18.3 56 +33 +33 очень
душно
1008.5 987.4
04 13.08 СЗ 4 н/о н/о +28.0 +18.8 57 +33 +33 очень
душно
1008.5 987.4
05 13.08 З 5 н/о н/о +27.6 +16.3 50 +31 +31 душно 1008.9 987.7
06 13.08 С 2 45 км ясно +29.6 +19.7 55 +36 +39 очень
душно
1008.9 988.1 +26.2
07 13.08 С 2 45 км ясно +30.9 +18.5 48 +36 +42 очень
душно
1009.0 988.3
08 13.08 С 3 45 км ясно +29.6 +22.5 66 +39 +48 очень
душно
1009.4 988.6
09 13.08 С 2 45 км ясно +31.6 +22.9 60 +42 +55 опасность
перегрева
1009.5 988.8
10 13.08 С 4 35 км ясно +30.4 +22.9 64 +40 +51 опасность
солнечного
удара
1009.5 988.8
11 13.08 З 4 35 км ясно +31.4 +21.0 54 +39 +50 очень
душно
1009.2 988.5
12 13.08 СЗ 7 н/о н/о +32.3 +18.2 43 +37 +37 очень
душно
1009.0 988.1
13 13.08 З 5 35 км 3/1 600 м
[Cb calv Ci sp]
+32.4 +19.8 47 +38 +44 очень
душно
1008.7 988.1
14 13.08 н/о н/о +32.5 +16.8 39 1008.1 987.3
15 13.08 СЗ 5 н/о н/о +33.5 +15.1 33 +35 +35 душно 1007.7 987.0
16 13.08 З 6 н/о н/о +30.5 +16.9 44 +34 +34 очень
душно
1007.6 986.7
17 13.08 З 5 н/о н/о +30.3 +16.4 43 +34 +34 очень
душно
1007.7 986.7
18 13.08 З 6 н/о н/о +29.0 +17.9 51 +33 +33 очень
душно
1007.6 986.6
19 13.08 СЗ 7 н/о н/о +29.7 +17.3 47 +34 +34 очень
душно
1007.7 986.7
20 13.08 СЗ 4 45 км 1/0
[Ci sp]
+28.9 +19.5 57 +35 +35 очень
душно
1007.8 987.0
21 13.08 СЗ 2 н/о н/о +28.7 +17.3 50 +33 +33 очень
душно
1007.7 986.6
00 14.08 З 3 н/о н/о +26.5 +22.4 78 +35 +35 очень
душно
1007.1 985.9
03 14.08 СЗ 5 н/о н/о +26.8 +21.4 72 +34 +34 очень
душно
1006.5 985.3
04 14.08 СЗ 6 н/о н/о +26.5 +20.2 68 +33 +33 очень
душно
1006.7 985.5
05 14.08 н/о н/о +25.4 +22.2 82 1007.3 986.0
06 14.08 СВ 3 12 км в посл. час дождь 10/5 300 м
[Sc As op Cs]
+22.3 +19.8 86 +28 +29 душно 1007.9 986.6 +21.8 1
07 14.08 С 4 25 км в посл. час дождь 10/5 600 м
[Sc As op Cs]
+22.8 +20.2 85 +29 +29 очень
душно
1008.5 987.0
08 14.08 Ю 2 25 км 9/4 600 м
[Sc As op Cs]
+24.9 +17.5 63 +29 +32 душно 1008.2 987.1
09 14.08 Ю 3 25 км 10/3 600 м
[Sc As trans Cs]
+26.1 +20.2 70 +32 +36 очень
душно
1008.9 987.9
10 14.08 Ю 3 25 км 10/3 600 м
[Sc As op Cs]
+26.4 +21.0 72 +33 +38 очень
душно
1009.5 988.5
11 14.08 ЮЗ 3 25 км 9/4 600 м
[Sc As trans Cs]
+26.6 +22.7 79 +35 +35 очень
душно
1009.5 988.2
12 14.08 С 2 25 км 6/3 600 м
[Sc As trans Ci sp]
+27.3 +22.7 76 +36 +45 очень
душно
1009.3 988.4 0.9
13 14.08 СВ 5 н/о н/о +27.3 +19.2 61 +33 +33 очень
душно
1009.4 988.2
14 14.08 СВ 4 н/о н/о +27.5 +18.6 58 +32 +32 очень
душно
1009.3 988.1
15 14.08 СВ 4 н/о н/о +27.1 +18.2 58 +32 +32 очень
душно
1009.2 988.0
16 14.08 С 1 н/о н/о +27.5 +17.7 55 +32 +32 очень
душно
1009.4 988.2
17 14.08 СЗ 3 н/о н/о +26.6 +18.0 59 +31 +31 душно 1009.7 988.4
18 14.08 СЗ 5 н/о н/о +25.2 +20.1 73 +31 +31 очень
душно
1010.3 988.9
19 14.08 С 4 н/о н/о +24.9 +18.7 68 +30 +30 душно 1011.0 989.6
20 14.08 СВ 5 50 км 4/0
[As trans Cc]
+24.6 +16.5 61 +28 +28 душно 1011.3 990.1
21 14.08 СВ 5 н/о н/о +24.1 +15.4 58 +27 +27 жарко 1011.6 990.1
00 15.08 Ю 1 н/о н/о +22.6 +15.3 63 +26 +26 жарко 1012.1 990.5
03 15.08 СВ 5 н/о н/о +22.4 +14.1 59 +26 +26 жарко 1011.8 990.2
04 15.08 В 5 н/о н/о +22.0 +12.6 55 +25 +25 комфорт 1012.0 990.4
05 15.08 н/о н/о +22.6 +12.0 51 1012.4 990.8
06 15.08 СВ 6 60 км 1/0
[Ac lent]
+23.6 +13.1 52 +26 +27 жарко 1013.3 991.9 +22.4
07 15.08 СВ 6 60 км ясно +23.9 +11.7 46 +25 +28 комфорт 1013.5 992.1
08 15.08 С 2 60 км 1/1 600 м
[Cu hum Ac lent]
+25.1 +12.5 45 +27 +36 жарко 1013.6 992.3
09 15.08 С 2 60 км ясно +26.7 +12.6 42 +28 +42 жарко 1013.5 992.3
10 15.08 С 3 60 км 1/1 600 м
[Cu hum]
+26.9 +13.5 44 +29 +41 жарко 1013.3 992.2
11 15.08 СЗ 3 60 км ясно +27.6 +12.8 40 +29 +43 жарко 1013.3 992.2
12 15.08 СЗ 6 60 км ясно +27.7 +13.1 41 +29 +36 жарко 1013.3 992.2
13 15.08 СЗ 8 60 км ясно +27.0 +12.2 40 +28 +31 жарко 1012.7 991.6
14 15.08 н/о н/о +25.9 +13.5 46 1012.0 990.6
15 15.08 н/о н/о +26.5 +14.3 47 1012.0 990.7
16 15.08 н/о н/о +25.7 +15.2 52 1012.0 990.6
17 15.08 н/о н/о +24.8 +15.5 56 1011.9 990.5
18 15.08 СЗ 10 60 км ясно +24.4 +17.8 67 +29 +29 душно 1012.6 991.3 +27.7
19 15.08 СЗ 7 60 км ясно +23.6 +17.1 67 +27 +27 жарко 1013.8 992.4
20 15.08 СЗ 7 50 км ясно +23.3 +18.2 73 +29 +29 душно 1013.9 992.5
21 15.08 СЗ 7 н/о н/о +23.3 +16.4 65 +28 +28 душно 1013.2 991.6
00 16.08 ЮВ 3 н/о н/о +22.7 +15.1 62 +27 +27 душно 1012.7 991.1
03 16.08 н/о н/о +22.3 +12.3 53 1012.6 991.0
04 16.08 СВ 4 н/о н/о +22.1 +11.9 52 +24 +24 комфорт 1013.0 991.4
05 16.08 СВ 4 н/о н/о +22.8 +12.5 52 +26 +26 жарко 1013.2 991.6
06 16.08 СВ 5 45 км ясно +23.7 +13.3 52 +26 +27 жарко 1014.3 992.9 +21.9
07 16.08 СВ 5 55 км ясно +24.6 +12.4 47 +26 +30 жарко 1014.6 993.3
08 16.08 В 4 55 км ясно +24.7 +13.0 48 +27 +33 жарко 1014.6 993.3
09 16.08 СВ 4 55 км ясно +25.7 +13.1 46 +28 +37 жарко 1014.6 993.3
10 16.08 СВ 4 55 км 1/0
[Ci sp]
+26.4 +11.4 39 +28 +28 жарко 1014.2 992.8
11 16.08 С 3 55 км 3/0
[Ci]
+27.7 +13.3 41 +29 +42 жарко 1014.7 993.6
12 16.08 СЗ 5 55 км 3/0
[Ci]
+28.0 +14.3 43 +30 +38 жарко 1014.5 993.4
13 16.08 СЗ 5 55 км 3/0
[Ci]
+27.9 +14.6 44 +30 +37 жарко 1014.7 993.6
14 16.08 н/о н/о +27.3 +14.0 44 1013.5 992.2
15 16.08 н/о н/о +26.7 +14.5 47 1013.3 992.0
16 16.08 н/о н/о +25.5 +15.6 54 1013.2 991.8
17 16.08 н/о н/о +24.7 +14.0 51 1013.3 991.8
18 16.08 н/о н/о +23.6 +13.8 54 1013.7 992.1
19 16.08 СЗ 7 60 км 1/1 600 м
[Cu med, cong Ci]
+23.4 +15.6 62 +28 +28 душно 1014.7 993.3
20 16.08 СЗ 7 50 км 1/1 600 м
[Cu med, cong Ci]
+23.1 +17.3 70 +28 +28 душно 1015.2 993.8
21 16.08 СЗ 3 н/о н/о +22.9 +17.0 69 +28 +28 душно 1015.1 993.5
00 17.08 В 6 н/о н/о +23.4 +11.2 46 +26 +26 жарко 1014.9 993.3
03 17.08 СВ 5 н/о н/о +22.7 +11.5 49 +25 +25 комфорт 1015.2 993.5
04 17.08 СВ 4 н/о н/о +22.5 +11.9 51 +25 +25 комфорт 1015.5 993.8
05 17.08 СВ 5 н/о н/о +23.2 +11.6 48 +26 +26 жарко 1015.5 993.9
06 17.08 СВ 4 45 км ясно +23.7 +12.9 51 +26 +28 жарко 1015.6 994.2 +21.8
07 17.08 СВ 4 45 км ясно +24.8 +14.0 51 +27 +31 жарко 1016.1 994.8
08 17.08 СВ 3 45 км ясно +25.9 +13.9 47 +28 +36 жарко 1016.4 995.1
09 17.08 С 2 45 км 1/0
[Ci sp]
+27.2 +12.8 41 +29 +42 жарко 1016.5 995.3
10 17.08 С 2 45 км 3/0
[Ci sp]
+27.4 +12.7 40 +29 +44 жарко 1016.6 995.4
11 17.08 СЗ 2 45 км 3/0
[Ci sp]
+28.6 +14.5 42 +31 +46 жарко 1016.1 995.0
12 17.08 СЗ 4 45 км 4/0
[Cs]
+27.9 +14.5 44 +30 +40 жарко 1016.0 994.9
13 17.08 СЗ 4 45 км 3/0
[Cs]
+28.7 +14.2 41 +31 +39 жарко 1015.8 994.7
14 17.08 СЗ 7 н/о н/о +27.7 +15.1 46 +30 +30 жарко 1015.8 994.5
15 17.08 н/о н/о +26.4 +16.1 53 1015.5 994.1
16 17.08 СЗ 7 н/о н/о +25.8 +16.1 55 +29 +29 душно 1015.5 994.1
17 17.08 н/о н/о +25.1 +15.2 54 1015.5 994.0
18 17.08 З 4 50 км 3/0
[Ci sp]
+23.0 +16.5 67 +28 +28 душно 1015.2 993.8 +28.9
19 17.08 З 4 50 км 3/0
[Ci sp]
+22.6 +18.5 78 +28 +28 душно 1015.2 993.8
20 17.08 З 4 50 км 3/0
[Ci sp]
+22.5 +19.1 81 +28 +28 душно 1015.6 994.1
21 17.08 СЗ 5 н/о н/о +23.0 +17.1 69 +28 +28 душно 1015.6 994.0
00 18.08 З 6 н/о н/о +23.3 +18.3 73 +29 +29 душно 1015.6 994.0
03 18.08 н/о н/о +22.2 +20.0 87 1015.6 993.9
04 18.08 н/о н/о +21.8 +20.0 90 1015.7 994.0
05 18.08 З 3 н/о н/о +22.7 +19.3 81 +29 +29 очень
душно
1015.9 994.2
06 18.08 СЗ 4 50 км 1/0
[Ci fib]
+22.9 +18.6 77 +29 +31 очень
душно
1015.8 994.4 +21.0
07 18.08 СЗ 4 50 км 1/0
[Ci fib]
+23.8 +17.8 69 +28 +32 душно 1015.8 994.4
08 18.08 С 2 50 км 1/0
[Ci fib]
+25.0 +17.0 61 +29 +38 душно 1016.0 994.7
09 18.08 С 2 50 км 1/0
[Ci fib]
+27.3 +13.2 42 +29 +42 жарко 1016.0 994.8
10 18.08 С 2 50 км 1/0
[Ci sp]
+27.8 +16.1 49 +31 +46 душно 1016.0 994.9
11 18.08 З 2 50 км 1/0
[Ci sp]
+28.0 +16.5 50 +32 +48 душно 1016.0 994.9
12 18.08 С 2 50 км 1/0
[Ci sp]
+28.4 +16.3 48 +32 +47 душно 1016.2 995.1
13 18.08 С 3 50 км 1/0
[Ci sp]
+28.6 +16.2 47 +32 +42 душно 1016.0 994.9
14 18.08 СЗ 2 н/о н/о +31.7 +12.1 30 +32 +32 жарко 1015.6 994.6
15 18.08 СЗ 5 н/о н/о +28.9 +17.8 51 +33 +33 очень
душно
1015.7 994.5
16 18.08 н/о н/о +28.2 +18.7 56 1015.7 994.4
17 18.08 З 2 н/о н/о +27.1 +16.8 53 +31 +31 душно 1015.5 994.2
18 18.08 СЗ 2 55 км 1/0
[Ci sp]
+25.8 +8.2 33 +26 +26 жарко 1015.2 993.9 +31.3
19 18.08 СЗ 2 55 км 1/0
[Ci sp]
+25.6 +9.1 35 +26 +26 жарко 1015.0 993.7
20 18.08 СЗ 2 55 км 1/0
[Ci sp]
+25.4 +10.2 38 +26 +26 жарко 1015.3 994.0
21 18.08 З 1 н/о н/о +25.7 +10.8 39 +27 +27 жарко 1015.7 994.3
00 19.08 З 2 н/о н/о +24.5 +9.3 38 +25 +25 комфорт 1015.8 994.3
03 19.08 СЗ 3 н/о н/о +23.2 +14.8 59 +27 +27 душно 1015.6 994.0
04 19.08 СЗ 3 н/о н/о +23.6 +11.0 45 +25 +25 комфорт 1015.7 994.1
05 19.08 З 3 н/о н/о +24.2 +14.4 54 +27 +27 жарко 1016.0 994.4
06 19.08 СЗ 2 60 км 1/0
[Cc]
+24.5 +18.7 70 +29 +32 душно 1016.9 995.6 +22.9
07 19.08 СЗ 1 60 км 1/0
[Cc]
+25.8 +9.6 36 +26 +33 жарко 1017.1 995.8
08 19.08 С 1 60 км 1/0
[Cc]
+27.5 +7.6 28 +27 +38 жарко 1017.0 995.8
09 19.08 СЗ 2 60 км 1/0
[Cc]
+28.1 +12.4 38 +29 +42 жарко 1016.5 995.4
10 19.08 С 2 60 км ясно +28.9 +16.6 47 +32 +48 душно 1017.4 996.3
11 19.08 С 2 60 км ясно +28.8 +17.5 50 +33 +49 очень
душно
1017.4 996.3
12 19.08 С 3 60 км ясно +29.0 +17.9 51 +33 +46 очень
душно
1017.2 996.2
13 19.08 С 1 60 км 1/0
[Ci fib]
+32.1 +16.8 40 +35 +50 очень
душно
1016.8 996.0
14 19.08 ЮЗ 1 н/о н/о +31.7 +17.3 42 +35 +35 очень
душно
1016.0 995.0
15 19.08 СЗ 4 н/о н/о +29.6 +19.1 53 +35 +35 очень
душно
1016.3 995.1
16 19.08 СЗ 6 н/о н/о +28.0 +19.0 58 +33 +33 очень
душно
1016.1 994.8
17 19.08 З 3 н/о н/о +27.5 +17.1 53 +31 +31 душно 1016.0 994.7
18 19.08 СЗ 4 60 км ясно +26.4 +16.0 53 +30 +30 душно 1016.3 995.1 +32.1
19 19.08 СЗ 3 50 км ясно +26.1 +14.3 48 +28 +28 жарко 1017.1 995.8
20 19.08 СЗ 4 50 км ясно +25.5 +14.0 49 +28 +28 жарко 1017.1 995.8
21 19.08 З 2 н/о н/о +25.6 +12.5 44 +27 +27 жарко 1016.7 995.2

 

Местоположение метеостанции Ластово (Хорватия): широта 42.77 долгота 16.90 высота над уровнем моря 186 м.

В архиве по умолчанию представлена погода в Ластово за последнюю неделю. Архивные данные за месяц целиком и за предыдущие месяцы, начиная с января 2011 года, Вы можете получить, выбрав интересующий диапазон дат из раскрывающегося списка и нажав кнопку "Ввод!".


*Определитесь, кто Вы:
робот инопланетянин человек

Внимание! Время в таблицах - всемирное. Для получения местного времени необходимо прибавить поправку, которая равна 1 ч.

Смотрите также архив погоды в соседних городах и на ближайших метеорологических станциях:

Погода в Плоче (Хорватия) (52 км)
Погода в Макарска (Хорватия) (58 км)
Погода в Хваре (Хорватия) (58 км)
Погода в Неуме (Босния и Герцеговина) (59 км)
Погода на Палагруже (Хорватия) (66 км)
Погода в Комице (Хорватия) (72 км)
Погода в Сплите (Хорватия) (92 км)
Погода в Дубровнике (Хорватия) (97 км)
Погода в Мостаре (Босния и Герцеговина) (98 км)
Погода в Сплит аэропорту (Хорватия) (98 км)

Пояснения к столбцам:

Ветер - указаны скорость ветра в м/с - средняя за 10 мин, порывы в срок и между сроками (в фигурных скобках) и направление, откуда дует ветер: С - северный, СВ - северо-восточный, В - восточный, ЮВ - юго-восточный, Ю - южный, ЮЗ - юго-западный, З - западный, СЗ - северо-западный.
Видимость - горизонтальная дальность видимости в метрах или километрах. При видимости от 1 до 10 км при отсутствии осадков обычно наблюдается дымка, при ухудшении видимости до 1 км и менее - туман. В сухую погоду видимость может ухудшаться дымом, пылью или мглою.
Явления - указаны атмосферные явления, наблюдавшиеся в срок или в последний час перед сроком; фигурными скобками обозначены явления, наблюдавшиеся между сроками (за 1-3 часа до срока); квадратными скобками обозначены град или гололедные отложения с указанием их диаметра в мм.
Облачность - указаны через наклонную черту общая и нижняя облачность в баллах и высота нижней границы облаков в метрах; квадратными скобками обозначены формы облаков: Ci - перистые, Cs - перисто-слоистые, Cc - перисто-кучевые, Ac - высококучевые, As - высокослоистые, Sc - слоисто-кучевые, Ns - слоисто-дождевые, Cu - кучевые, Cb - кучево-дождевые. Подробнее классификацию облаков см. в Атласе облаков (PDF).
T - Температура воздуха - температура, измеренная на высоте 2 м над землей.
Td - Температура точки росы - температура, при понижении до которой содержащийся в воздухе водяной пар достигнет насыщения.
f - Относительная влажность воздуха - влажноcть воздуха, измеренная на высоте 2 м над землей.
Te - Эффективная температура - температура, которую ощущает одетый по сезону человек в тени. Характеристика душности погоды. При расчете учитывается влияние влажности воздуха и скорости ветра на теплоощущения человека.
Tes - Эффективная температура на солнце - температура, которую ощущает человек, с поправкой на солнечный нагрев. Характеристика знойности погоды. Зависит от высоты солнца над горизонтом, облачности и скорости ветра. Ночью, в пасмурную погоду, а также при ветре 12 м/с и более поправка равна нулю.
P - Атмосферное давление - приведенное к уровню моря атмосферное давление.
Po - Атмосферное давление - измеренное на уровне метеостанции атмосферное давление.
Tmin - Минимальная температура - минимум температуры воздуха на высоте 2 м над землей.
Tmax - Максимальная температура - максимум температуры воздуха на высоте 2 м над землей.
R - Количество осадков - Количество выпавших осадков за период времени, мм. При наведении курсора мыши на число - период времени, за который выпало указанное количество осадков.
R24 - Количество осадков - Количество выпавших осадков за 24 часа, мм.
S - Снежный покров - Высота снежного покрова, см. При наведении курсора мыши на число - состояние снежного покрова и степень покрытия местности в баллах.